Find Starlink 1557

NORAD ID: 46034 Int'l Des: 2020-055 Owner: SPXS Country: US Constellation: starlink operational
LEOCIRCULARSTARLINK_TYPE

現在のビュー

3D地球を読み込み中...

About Starlink 1557

Starlink 1557 (NORAD 46034) is a starlink constellation satellite (v1.0) launched Aug 7, 2020 by SPXS of US. It operates in LEO, CIRCULAR, STARLINK_TYPE orbit with a mass of 260.00 kg.

Starlink 1557について

説明を読み込み中...

次回通過

Passes for default location (London). Set your location on the main map for personalized predictions.

高度履歴

Loading altitude history...

軌道要素

1 46034U 20055H 26170.83469787 .00000533 00000-0 30123-4 0 9991
2 46034 53.1601 12.2545 0001265 111.8493 248.2643 15.30195299324502
Epoch: Jun 19, 2026 • Age: 40 hours

現在のステータス

高度 474.8 km
速度 7.63 km/s
衛星直下点 16.67°N, 83.25°E
打ち上げ日 Aug 7, 2020
運用期間 5.8 years
タイプ internet

技術仕様

分類 Payload
質量 260.00 kg
乾燥質量 248.00 kg
総質量 260.00 kg
長さ 0.20 m
直径 2.80 m
スパン 9.00 m
形状 Box + pan
製造者 SPXS
バスタイプ Starlink
フェーズステータス In Orbit
所有者/国 SPXS/US

Most Searched